Weather History for KSDF - March, 2012

Change the Weather History Date:

Thursday, March 8, 2012

  Actual Average Record
Temperature  
Mean Temperature 52 °F 45 °F  
Max Temperature 64 °F 55 °F 82 °F (1974)
Min Temperature 39 °F 35 °F 6 °F (1960)
Degree Days  
Heating Degree Days 13 20  
Month to date heating degree days 133 169  
Since 1 July heating degree days 2911 3410  
Cooling Degree Days 0 0  
Month to date cooling degree days 0 0  
Year to date cooling degree days 0 0  
Growing Degree Days 2 (Base 50)    
Moisture  
Dew Point 48 °F    
Average Humidity 72    
Maximum Humidity 96    
Minimum Humidity 48    
Precipitation  
Precipitation 0.69 in 0.13 in 1.47 in (1909)
Month to date precipitation 1.53 0.99  
Year to date precipitation 7.36 7.41  
Snow  
Snow 0.00 in 0.00 in 6.10 in (2008)
Month to date snowfall 3.5 0.5  
Since 1 July snowfall 7.0 11.5  
Snow Depth 0.00 in    
Sea Level Pressure  
Sea Level Pressure 30.11 in    
Wind  
Wind Speed 13 mph (West)    
Max Wind Speed 30 mph    
Max Gust Speed 41 mph    
Visibility 5 miles    
Events Rain    
T = Trace of Precipitation, MM = Missing Value Source: NWS Daily Summary

Daily Weather History Graph

Daily Weather History Graph

Search for Another Location

Airport or City:

Trip Planner

Search our weather history database for the weather conditions in past years. The results will help you decide how hot, cold, wet, or windy it might be!

Date:

Astronomy

Mar. 08, 2012 Rise Set
Actual Time 7:03 AM EST 6:43 PM EST
Civil Twilight 6:37 AM EST 7:10 PM EST
Nautical Twilight 6:07 AM EST 7:40 PM EST
Astronomical Twilight 5:36 AM EST 8:11 PM EST
Moon 7:28 PM EST (3/8) 6:48 AM EST (3/8)
Length of Visible Light 12h 32m
Length of Day
11h 39m
Full, 100% of the Moon is Illuminated
Mar 8
Full
Mar 14
Last Quarter
Mar 22
New
Mar 30
First Quarter
Apr 6
Full

Hourly Weather History & Observations

Time (EST) Temp. Windchill Dew Point Humidity Pressure Visibility Wind Dir Wind Speed Gust Speed Precip Events Conditions
12:56 AM 63.0 °F - 44.1 °F 50% 30.13 in 10.0 mi South 15.0 mph 23.0 mph N/A   Overcast
1:56 AM 62.1 °F - 45.0 °F 53% 30.12 in 10.0 mi South 12.7 mph 23.0 mph N/A   Overcast
2:56 AM 61.0 °F - 45.0 °F 56% 30.10 in 10.0 mi South 13.8 mph 20.7 mph N/A   Partly Cloudy
3:56 AM 61.0 °F - 45.0 °F 56% 30.08 in 10.0 mi South 15.0 mph 19.6 mph N/A   Scattered Clouds
4:56 AM 61.0 °F - 46.0 °F 58% 30.06 in 10.0 mi South 11.5 mph - N/A   Mostly Cloudy
5:56 AM 61.0 °F - 46.9 °F 60% 30.05 in 10.0 mi South 16.1 mph 21.9 mph N/A   Overcast
6:56 AM 61.0 °F - 46.9 °F 60% 30.04 in 10.0 mi South 12.7 mph - N/A   Overcast
7:56 AM 64.0 °F - 48.0 °F 56% 30.04 in 9.0 mi SSW 23.0 mph 32.2 mph N/A   Overcast
8:56 AM 59.0 °F - 52.0 °F 78% 30.05 in 5.0 mi SSW 25.3 mph 32.2 mph 0.03 in Rain Rain
9:56 AM 57.0 °F - 53.1 °F 87% 30.05 in 3.0 mi North - - 0.10 in Rain Rain
10:37 AM 57.2 °F - 53.6 °F 88% 30.06 in 5.0 mi South 17.3 mph 26.5 mph 0.06 in Rain Light Rain
10:52 AM 57.2 °F - 53.6 °F 88% 30.06 in 5.0 mi South 18.4 mph 24.2 mph 0.07 in Rain Light Rain
10:56 AM 57.9 °F - 54.0 °F 87% 30.06 in 6.0 mi South 16.1 mph 23.0 mph 0.07 in Rain Light Rain
11:56 AM 59.0 °F - 55.0 °F 87% 30.06 in 6.0 mi SSW 17.3 mph 29.9 mph 0.02 in Rain Rain
12:11 PM 59.0 °F - 55.4 °F 88% 30.07 in 2.5 mi SW 15.0 mph 23.0 mph 0.03 in Rain Rain
12:23 PM 59.0 °F - 55.4 °F 88% 30.08 in 3.0 mi SW 15.0 mph 20.7 mph 0.06 in Rain Light Rain
12:31 PM 57.2 °F - 55.4 °F 94% 30.09 in 4.0 mi West 13.8 mph 19.6 mph 0.06 in Rain Rain
12:35 PM 57.2 °F - 55.4 °F 94% 30.09 in 2.0 mi West 15.0 mph - 0.07 in Rain Rain
12:43 PM 57.2 °F - 55.4 °F 94% 30.09 in 1.5 mi West 10.4 mph - 0.13 in Rain Heavy Rain
12:44 PM 57.2 °F - 55.4 °F 94% 30.09 in 1.5 mi West 10.4 mph - 0.14 in Rain Heavy Rain
12:56 PM 57.9 °F - 55.9 °F 93% 30.08 in 1.2 mi West 10.4 mph - 0.19 in Rain Heavy Rain
1:23 PM 57.2 °F - 55.4 °F 94% 30.08 in 2.0 mi WSW 8.1 mph - 0.12 in Rain Light Rain
1:56 PM 57.9 °F - 55.9 °F 93% 30.05 in 2.0 mi SW 6.9 mph - 0.14 in Rain Light Rain
2:04 PM 57.2 °F - 55.4 °F 94% 30.05 in 2.5 mi SW 8.1 mph - 0.00 in Rain Light Rain
2:16 PM 57.2 °F - 55.4 °F 94% 30.05 in 3.0 mi SW 10.4 mph - 0.00 in   Light Drizzle
2:35 PM 57.2 °F - 55.4 °F 94% 30.05 in 1.8 mi West 11.5 mph - 0.00 in Rain Rain
2:44 PM 55.4 °F - 53.6 °F 94% 30.05 in 2.0 mi NW 9.2 mph - 0.03 in Rain Rain
2:56 PM 55.9 °F - 54.0 °F 93% 30.05 in 2.5 mi WNW 8.1 mph - 0.04 in Rain Light Rain
3:10 PM 55.4 °F - 53.6 °F 94% 30.06 in 3.0 mi WNW 15.0 mph - 0.00 in Rain Light Rain
3:22 PM 55.4 °F - 53.6 °F 94% 30.06 in 2.5 mi WNW 12.7 mph - 0.00 in Rain Light Rain
3:41 PM 53.6 °F - 51.8 °F 94% 30.07 in 2.5 mi NW 16.1 mph 21.9 mph 0.00 in Rain Light Rain
3:47 PM 53.6 °F - 50.0 °F 88% 30.07 in 1.5 mi NW 15.0 mph 21.9 mph 0.00 in Rain Light Rain
3:56 PM 52.0 °F - 50.0 °F 93% 30.09 in 2.5 mi NW 11.5 mph - 0.01 in Rain Light Rain
3:59 PM 51.8 °F - 50.0 °F 94% 30.10 in 3.0 mi NW 15.0 mph 20.7 mph 0.00 in Rain Light Rain
4:13 PM 51.8 °F - 48.2 °F 88% 30.13 in 2.0 mi NW 19.6 mph 31.1 mph 0.03 in Rain Rain
4:30 PM 48.2 °F - 44.6 °F 87% 30.16 in 2.5 mi NW 21.9 mph 32.2 mph 0.05 in Rain Rain
4:33 PM 48.2 °F - 44.6 °F 87% 30.16 in 2.5 mi NW 25.3 mph 34.5 mph 0.06 in Rain Rain
4:46 PM 44.6 °F 36.9 °F 39.2 °F 81% 30.17 in 3.0 mi NW 18.4 mph 33.4 mph 0.08 in Rain Rain
4:56 PM 45.0 °F 40.6 °F 39.9 °F 82% 30.16 in 4.0 mi NW 8.1 mph 19.6 mph 0.09 in Rain Light Rain
5:19 PM 44.6 °F 40.2 °F 39.2 °F 81% 30.16 in 10.0 mi NW 8.1 mph - 0.00 in Rain Light Rain
5:56 PM 45.0 °F 38.5 °F 39.0 °F 80% 30.23 in 10.0 mi WNW 13.8 mph - 0.00 in   Overcast
6:56 PM 44.1 °F 37.7 °F 36.0 °F 73% 30.24 in 10.0 mi NW 12.7 mph - 0.00 in   Overcast
7:56 PM 43.0 °F 36.0 °F 34.0 °F 71% 30.28 in 10.0 mi NW 13.8 mph - N/A   Overcast
8:56 PM 42.1 °F 37.7 °F 34.0 °F 73% 30.28 in 10.0 mi NW 6.9 mph - N/A   Overcast
9:56 PM 41.0 °F 37.1 °F 34.0 °F 76% 30.28 in 10.0 mi NNW 5.8 mph - N/A   Mostly Cloudy
10:56 PM 39.9 °F 35.8 °F 33.1 °F 77% 30.31 in 10.0 mi WNW 5.8 mph - N/A   Mostly Cloudy
11:56 PM 39.9 °F 35.1 °F 32.0 °F 73% 30.33 in 10.0 mi WNW 6.9 mph - N/A   Partly Cloudy